Airfield :
LOGIN :

Register | Disclaimer

   EN    FR    IT 

 










Legend :    VFR   Marginal VFR   IFR   Intensive IFR   Very Intensive IFR
Visi :
Ceiling :
>= 8 km
>= 3000ft
5 to 8 km
1000 to 3000 ft
1500m to 5 km
500 to 1000 ft
800 to 1500m
200 to 500 ft
< 800m
< 200 ft
Symbols :   Thunderstorms  Fog  Heavy snow  Heavy precipitations  Wind > 20 kt
SIGMETs :     Misc.  Thunderstorms  Icing  Turbulence  Mountain Waves  Volcanic Ashes







- Airport Elevation : 327 ft
- IATA code : BHX
- Download approach charts


EGBB - Birmingham

CURRENT METAR :
  • 210450Z 32004KT CAVOK 09/07 Q1018

EXPIRED METARs :
  • 210420Z 32004KT CAVOK 08/07 Q1018
  • 210350Z 32006KT CAVOK 09/07 Q1017
  • 210320Z 32007KT CAVOK 09/07 Q1017
  • 210250Z 32006KT CAVOK 09/07 Q1017
  • 210220Z 31007KT CAVOK 09/07 Q1017

TAF TAF EGBB
Valid from the 21 at 00:00 until the 22 at 00:00 UTC


202300Z 2100/2124 33007KT 9999 FEW045
PROB30
TEMPO 2103/2108 3000 BR BKN004
ATIS : +44 121 780 0910
No reported NOTAMs for that airfield.



MET'MAP, your aeronautical weather chart ! - Copyright ORBIFLY December 2007 - Disclaimer

ORBIFLY MET'MAP TEAM :

Programming & Development : Alexandra Zaïnal
Concept & Development : Baudouin d'Aumeries
Co-Development & Prog : Marc-Olivier Méhu
Technical & hardware support : Manuel Goepfert

Contact : metmap@orbifly.com




SOURCES & CREDITS :

   NOAA